Wetbulb
67.83 70.03 72.87 72.10 71.59 71.05 71.05 71.95 72.07 71.33 71.69 71.69 72.93 72.75 72.56 71.62 70.89 70.27 69.55 69.03 68.64 68.56 68.44 68.47 68.73 69.18 69.78 70.29 70.54 70.47 70.11 69.95 69.76 69.55 68.85 69.72 71.29 70.41 70.10 69.84 69.86 69.01 70.05
68.88 70.49 72.59 72.59 71.86 71.43 71.44 71.39 71.81 72.51 72.50 72.83 72.49 71.77 70.78 70.08 69.33 68.59 68.15 67.73 67.37 67.20 67.09 66.87 66.77 66.59 66.76 66.93 66.98 67.15 66.89 66.71 67.33 66.77 67.48 68.91 70.12 70.96 70.35 70.10 70.17 68.85 70.40
69.19 70.55 70.95 72.67 72.70 72.59 72.54 72.00 71.94 72.29 72.75 72.10 71.18 70.37 69.66 68.65 67.83 67.37 67.15 66.89 66.98 66.94 66.79 66.67 66.51 66.09 65.55 64.96 64.33 63.77 63.07 63.17 63.24 64.26 64.65 64.33 68.10 70.78 70.64 70.36 70.00 69.69 69.95
69.83 70.76 70.62 72.93 73.39 73.46 73.20 72.78 72.67 72.07 71.40 70.92 69.96 68.91 67.95 67.31 66.97 66.66 66.59 66.52 66.34 66.23 66.12 65.65 65.22 64.95 65.06 65.65 66.39 66.70 66.09 65.83 65.82 62.71 62.24 66.43 68.05 70.21 70.38 70.71 70.41 70.21 69.79
70.43 70.44 70.81 73.19 73.98 73.90 73.42 72.91 71.72 70.95 70.05 68.93 68.10 67.20 66.96 66.91 66.42 66.35 66.17 65.63 65.56 65.70 65.21 64.56 64.75 64.62 65.18 66.92 67.16 66.59 66.81 66.71 63.87 63.89 65.25 65.44 65.83 68.92 70.19 70.29 70.00 70.40 70.17
70.03 70.12 72.44 73.60 73.59 73.07 72.60 71.59 70.61 69.60 68.44 67.49 67.02 66.57 66.46 66.23 66.49 65.69 64.90 64.52 64.89 64.71 64.00 64.05 64.24 64.01 65.21 66.54 66.79 67.98 67.78 67.59 65.75 63.11 63.89 66.26 65.65 69.68 69.89 69.71 69.50 69.44 69.39
69.45 70.50 72.23 73.42 73.04 72.48 71.27 70.18 69.29 68.08 67.39 67.05 66.57 66.44 66.24 66.09 65.38 64.78 63.95 63.85 64.05 63.65 63.35 63.77 63.38 64.01 65.71 65.52 66.83 67.83 66.66 64.75 60.99 60.80 61.75 64.65 66.51 69.72 69.70 69.35 68.68 68.30 68.57
69.41 70.91 71.72 71.78 71.92 71.56 70.28 69.17 68.01 67.22 66.98 66.66 66.39 66.26 65.68 64.90 64.25 63.67 63.26 63.15 63.10 62.72 62.99 62.83 62.81 64.32 64.90 65.02 66.71 65.85 64.22 62.86 60.37 60.04 61.06 63.32 68.21 68.30 68.79 68.18 67.67 67.73 67.51
69.98 70.42 70.75 70.32 70.07 69.63 68.99 68.23 67.72 67.03 66.60 66.21 65.74 65.09 64.31 63.64 63.28 62.85 62.38 62.27 61.91 61.53 62.07 62.02 62.60 63.58 64.22 64.74 64.94 64.38 63.61 62.49 58.38 59.93 62.21 62.77 67.85 68.05 67.87 66.94 66.77 66.33 66.22
69.36 69.52 69.37 68.70 67.47 66.17 65.75 67.00 66.82 66.78 66.41 66.05 64.64 63.70 63.13 62.73 62.31 61.53 61.18 61.09 60.89 60.31 61.04 61.41 62.33 63.37 63.58 63.73 63.39 62.87 62.21 61.39 57.43 59.74 60.75 62.23 65.96 66.80 66.56 65.97 65.20 64.75 64.40
67.90 68.32 67.64 65.86 64.64 63.64 63.57 64.60 65.40 65.45 64.84 63.75 62.33 61.88 57.94 53.67 54.54 55.81 59.87 60.61 59.84 59.80 60.76 61.61 61.75 61.95 60.04 62.68 61.40 61.04 59.77 56.42 56.85 58.18 62.62 66.36 66.42 66.24 65.26 64.88 64.16 63.22 62.13
65.74 65.67 64.66 63.57 63.45 63.26 63.09 60.20 59.03 60.62 58.00 56.24 55.47 51.76 49.03 48.87 50.37 53.45 56.54 59.63 60.15 60.13 60.68 59.50 59.43 59.37 55.93 52.32 54.32 56.83 54.73 54.60 55.53 57.49 60.66 64.98 64.27 64.25 63.69 62.61 62.34 61.89 61.71
65.15 64.11 62.83 62.87 62.60 60.84 59.59 58.12 56.54 55.05 52.49 52.06 53.09 50.22 47.63 48.17 48.44 47.87 48.10 46.99 47.42 52.16 48.96 51.71 51.81 52.33 51.86 51.25 51.23 51.63 52.81 52.90 52.85 54.73 59.66 62.31 62.40 62.47 62.10 61.33 61.02 60.67 60.45
64.44 62.90 61.84 62.02 60.82 59.02 58.35 56.50 53.68 52.00 50.09 48.68 49.02 46.61 45.13 45.38 45.74 45.70 45.92 45.77 45.69 45.99 47.96 48.98 49.93 51.21 51.15 50.50 50.22 50.38 50.34 49.56 50.37 52.29 56.49 60.16 59.76 60.40 60.80 60.52 60.39 60.46 60.41
63.52 61.24 60.86 60.74 59.56 57.97 56.25 53.15 51.97 50.90 49.98 48.53 46.39 46.35 46.69 46.16 44.84 44.61 44.74 44.74 45.02 45.35 46.90 48.64 50.17 51.23 51.03 50.74 49.59 49.84 48.83 47.72 49.37 51.05 52.25 58.16 58.64 58.85 59.57 60.10 60.41 60.37 60.20
61.06 59.71 60.35 59.13 58.56 57.13 54.54 51.80 50.43 48.91 47.88 46.70 46.14 46.64 47.25 45.70 44.53 44.95 44.91 44.79 44.66 44.81 45.08 47.79 49.88 50.76 50.70 50.85 49.46 48.12 48.33 47.53 47.38 49.10 50.10 52.11 57.27 57.30 57.70 58.39 58.74 59.10 59.42
60.47 59.08 57.81 56.05 56.39 53.94 51.47 50.05 48.62 48.01 47.97 46.83 46.47 47.08 47.33 46.89 46.04 45.38 44.95 44.61 44.54 45.00 45.59 45.41 46.83 49.62 50.24 51.20 49.06 48.08 47.16 47.04 47.07 47.70 48.43 48.61 50.41 55.68 55.60 56.08 56.43 56.83 57.42
59.58 58.21 58.06 56.39 54.55 52.28 50.81 49.93 49.22 48.45 47.67 46.95 46.63 47.13 47.94 48.02 47.24 46.05 45.71 45.50 45.35 45.52 45.23 44.86 44.83 44.38 44.75 48.03 48.21 48.31 47.64 46.82 46.62 47.02 47.94 47.14 47.34 47.08 51.24 53.29 53.38 53.98 54.97
59.00 56.75 56.85 57.62 57.00 52.82 50.59 49.61 48.83 48.16 47.25 46.57 46.61 46.71 47.92 48.42 48.04 46.82 46.07 45.60 46.05 45.52 44.74 45.26 44.10 44.07 43.28 43.65 45.96 48.19 47.96 47.05 46.60 48.47 46.36 46.59 46.39 44.73 44.90 51.70 51.31 51.09 51.68
58.35 57.12 56.88 56.96 56.79 55.44 53.33 50.61 48.69 47.91 46.89 46.88 46.31 47.01 47.93 48.29 48.30 47.06 46.33 46.42 46.45 45.30 44.71 44.73 43.89 43.77 43.25 43.05 46.86 45.75 46.13 48.16 47.65 46.46 46.01 47.25 46.47 45.72 44.42 44.88 44.39 44.11 49.21
56.79 56.24 56.51 55.73 55.69 55.10 54.29 51.51 49.08 47.25 47.34 47.13 47.76 48.23 47.91 48.41 48.24 47.03 46.04 46.31 46.00 45.68 44.67 44.86 44.70 44.42 44.05 43.65 44.18 43.72 43.79 44.45 46.48 47.70 47.06 46.28 46.73 46.62 45.33 44.86 43.99 43.09 43.76
55.12 55.82 55.88 56.09 55.72 55.29 54.83 53.87 53.93 51.51 49.18 49.34 49.30 48.72 48.68 48.38 49.01 48.16 47.40 46.28 46.45 45.77 45.28 45.21 45.62 44.72 44.13 43.55 42.49 41.80 40.84 42.77 43.85 46.07 47.06 47.45 46.12 46.73 46.67 46.31 45.02 44.09 42.78
54.22 54.45 54.88 55.41 55.08 55.01 54.62 53.88 53.32 52.49 51.03 49.89 48.68 48.58 48.96 48.97 50.00 49.56 48.34 47.34 47.37 46.67 46.12 46.02 46.26 45.56 44.38 44.28 43.60 42.64 39.20 38.26 39.30 42.76 45.00 45.68 45.36 45.68 46.29 46.29 46.18 45.62 43.99
53.56 54.70 54.98 55.29 55.39 55.05 54.73 53.34 52.20 51.81 50.47 50.45 48.95 48.96 48.34 49.27 49.39 50.12 49.40 48.80 48.67 49.12 48.12 47.44 47.90 46.14 44.95 44.07 44.47 44.96 42.15 41.14 37.73 37.11 41.05 42.40 43.40 44.80 44.50 44.60 45.29 45.84 45.48
53.57 53.68 54.62 54.67 54.28 54.45 54.33 53.63 52.31 51.41 51.90 50.87 50.39 49.51 49.69 49.67 50.46 50.98 50.29 50.18 49.85 49.62 48.56 48.08 46.87 46.54 46.34 43.97 43.32 42.63 41.53 40.97 40.09 38.14 36.16 38.91 41.85 42.81 43.57 42.93 42.87 42.88 43.67
53.58 53.53 53.67 53.69 53.49 53.93 53.67 53.11 52.49 51.76 51.66 50.99 50.79 49.93 49.46 49.89 50.24 50.73 51.36 50.46 50.36 49.86 48.51 47.77 47.10 46.08 45.71 45.26 44.04 43.04 42.31 40.77 39.94 38.82 37.08 37.47 37.82 40.78 42.35 42.86 42.38 41.86 42.36
MSLP
1011.51 1011.70 1012.29 1012.72 1013.11 1013.49 1013.75 1014.05 1014.29 1014.53 1014.72 1014.89 1015.06 1015.27 1015.47 1015.74 1015.92 1016.03 1016.11 1016.21 1016.31 1016.35 1016.40 1016.50 1016.54 1016.54 1016.58 1016.59 1016.62 1016.70 1016.81 1016.81 1016.84 1016.89 1016.88 1016.81 1016.64 1016.63 1016.76 1016.85 1016.85 1016.81 1016.77
1010.26 1011.23 1012.01 1012.61 1012.97 1013.31 1013.66 1014.03 1014.42 1014.62 1014.81 1014.93 1015.21 1015.45 1015.72 1016.02 1016.18 1016.26 1016.32 1016.35 1016.43 1016.54 1016.60 1016.64 1016.70 1016.77 1016.78 1016.86 1016.90 1016.89 1016.92 1016.97 1016.94 1016.94 1016.98 1017.01 1016.92 1016.78 1016.87 1016.93 1016.91 1016.90 1016.88
1010.26 1011.00 1011.84 1012.42 1012.90 1013.22 1013.54 1013.99 1014.44 1014.70 1014.91 1015.06 1015.37 1015.79 1016.07 1016.25 1016.42 1016.48 1016.55 1016.60 1016.67 1016.77 1016.85 1016.90 1016.97 1017.02 1017.07 1017.13 1017.17 1017.12 1017.09 1017.13 1017.13 1017.01 1016.94 1017.09 1017.02 1016.86 1016.95 1017.00 1017.07 1017.02 1017.01
1010.10 1010.86 1011.67 1012.33 1012.71 1013.12 1013.53 1013.94 1014.38 1014.72 1015.07 1015.42 1015.79 1016.00 1016.22 1016.40 1016.59 1016.71 1016.81 1016.85 1016.93 1017.02 1017.16 1017.24 1017.27 1017.32 1017.28 1017.25 1017.26 1017.25 1017.25 1017.35 1017.35 1017.22 1017.15 1017.13 1017.02 1017.02 1017.08 1017.02 1017.16 1017.20 1017.21
1010.23 1010.83 1011.49 1012.19 1012.61 1013.05 1013.46 1013.92 1014.39 1014.91 1015.39 1015.69 1015.97 1016.17 1016.38 1016.58 1016.76 1016.86 1017.04 1017.17 1017.13 1017.24 1017.38 1017.49 1017.50 1017.49 1017.51 1017.42 1017.34 1017.25 1017.27 1017.44 1017.61 1017.55 1017.43 1017.38 1017.36 1017.23 1017.28 1017.40 1017.43 1017.42 1017.46
1010.21 1010.86 1011.44 1012.02 1012.58 1013.13 1013.58 1014.07 1014.53 1015.02 1015.44 1015.79 1016.08 1016.33 1016.53 1016.73 1016.89 1017.10 1017.29 1017.42 1017.41 1017.47 1017.58 1017.63 1017.66 1017.65 1017.66 1017.58 1017.44 1017.19 1017.37 1017.67 1017.90 1018.02 1017.99 1017.80 1017.60 1017.51 1017.54 1017.71 1017.74 1017.77 1017.73
1010.25 1010.85 1011.41 1011.89 1012.56 1013.12 1013.74 1014.25 1014.62 1015.00 1015.46 1015.83 1016.15 1016.43 1016.66 1016.90 1017.10 1017.32 1017.46 1017.56 1017.58 1017.66 1017.73 1017.73 1017.76 1017.76 1017.77 1017.72 1017.70 1017.77 1017.92 1018.04 1018.11 1018.27 1018.33 1018.15 1017.94 1017.71 1017.82 1017.93 1018.04 1018.12 1018.19
1010.02 1010.77 1011.34 1011.97 1012.55 1013.17 1013.81 1014.27 1014.66 1014.98 1015.45 1015.86 1016.17 1016.50 1016.82 1017.07 1017.28 1017.47 1017.65 1017.74 1017.70 1017.85 1017.92 1017.93 1017.94 1017.89 1017.92 1017.92 1017.98 1018.16 1018.40 1018.54 1018.43 1018.59 1018.67 1018.54 1018.22 1018.13 1018.28 1018.48 1018.51 1018.58 1018.71
1010.09 1010.89 1011.40 1012.02 1012.66 1013.20 1013.88 1014.32 1014.69 1015.07 1015.51 1015.97 1016.27 1016.60 1017.00 1017.25 1017.45 1017.59 1017.87 1017.97 1017.98 1018.12 1018.14 1018.16 1018.20 1018.17 1018.14 1018.11 1018.32 1018.60 1018.87 1018.96 1018.97 1019.03 1018.90 1018.83 1018.64 1018.70 1018.81 1018.86 1018.96 1019.07 1019.24
1010.42 1011.05 1011.65 1012.18 1012.84 1013.44 1014.05 1014.42 1014.82 1015.22 1015.74 1016.16 1016.59 1016.91 1017.25 1017.47 1017.63 1017.82 1018.09 1018.27 1018.14 1018.39 1018.39 1018.39 1018.41 1018.52 1018.60 1018.54 1018.74 1019.00 1019.10 1019.22 1019.36 1019.31 1019.23 1019.04 1018.91 1019.07 1019.26 1019.39 1019.45 1019.53 1019.67
1010.52 1011.07 1011.53 1012.20 1012.94 1013.56 1014.16 1014.61 1015.05 1015.45 1015.97 1016.51 1016.95 1017.26 1017.61 1017.92 1018.09 1018.23 1018.29 1018.45 1018.24 1018.55 1018.64 1018.57 1018.63 1018.81 1019.02 1019.03 1019.17 1019.35 1019.50 1019.87 1019.75 1019.84 1019.65 1019.43 1019.47 1019.58 1019.76 1019.84 1019.92 1019.97 1020.06
1010.65 1011.06 1011.57 1012.21 1012.98 1013.53 1014.21 1014.89 1015.38 1015.77 1016.33 1016.80 1017.17 1017.57 1017.93 1018.18 1018.26 1018.45 1018.60 1018.54 1018.59 1018.79 1018.87 1018.72 1018.76 1018.84 1019.25 1019.43 1019.65 1019.79 1020.13 1020.35 1020.35 1020.36 1020.16 1019.92 1020.01 1020.10 1020.20 1020.21 1020.29 1020.38 1020.44
1010.53 1011.56 1011.86 1012.20 1012.84 1013.58 1014.52 1015.24 1015.78 1016.21 1016.76 1017.14 1017.37 1017.65 1018.03 1018.29 1018.48 1018.78 1018.95 1019.04 1019.17 1019.24 1019.48 1019.31 1019.28 1019.31 1019.54 1019.65 1020.08 1020.30 1020.50 1020.65 1020.85 1020.88 1020.71 1020.59 1020.56 1020.58 1020.67 1020.73 1020.73 1020.79 1020.92
1010.22 1011.21 1011.99 1012.43 1013.08 1013.92 1014.58 1015.26 1015.83 1016.34 1016.87 1017.34 1017.56 1017.84 1018.22 1018.59 1018.77 1019.06 1019.06 1019.15 1019.35 1019.60 1019.71 1019.89 1019.74 1019.77 1019.90 1019.86 1020.21 1020.66 1020.82 1021.14 1021.33 1021.41 1021.18 1020.98 1020.94 1020.93 1020.96 1021.07 1021.08 1021.08 1021.16
1009.91 1011.16 1011.93 1012.42 1013.05 1013.95 1014.62 1015.33 1015.86 1016.34 1016.70 1017.02 1017.46 1017.82 1018.12 1018.56 1018.87 1019.06 1019.16 1019.33 1019.56 1019.67 1019.77 1020.01 1019.98 1020.02 1020.16 1020.25 1020.49 1020.67 1021.08 1021.37 1021.65 1021.74 1021.73 1021.51 1021.41 1021.30 1021.27 1021.30 1021.29 1021.32 1021.36
1010.10 1010.97 1012.03 1012.54 1012.95 1013.77 1014.68 1015.31 1015.91 1016.39 1016.73 1017.11 1017.53 1017.77 1017.95 1018.36 1018.83 1019.07 1019.17 1019.44 1019.63 1019.65 1019.95 1020.12 1020.17 1020.34 1020.52 1020.53 1020.85 1020.92 1021.27 1021.53 1021.80 1021.95 1022.03 1022.00 1021.88 1021.80 1021.71 1021.67 1021.65 1021.64 1021.63
1011.72 1011.11 1011.77 1012.60 1013.09 1014.00 1014.73 1015.25 1015.84 1016.35 1016.77 1017.20 1017.53 1017.70 1018.02 1018.33 1018.62 1019.09 1019.19 1019.43 1019.81 1019.77 1020.02 1020.16 1020.37 1020.52 1020.78 1020.88 1021.21 1021.21 1021.44 1021.72 1021.89 1022.15 1022.27 1022.34 1022.35 1022.28 1022.23 1022.16 1022.07 1021.99 1021.90
1011.17 1012.56 1012.84 1012.88 1013.44 1013.71 1014.59 1015.08 1015.59 1016.08 1016.55 1017.04 1017.55 1017.88 1018.13 1018.43 1018.71 1019.11 1019.40 1019.46 1019.65 1019.87 1020.16 1020.42 1020.65 1020.87 1021.08 1021.30 1021.45 1021.47 1021.66 1021.84 1022.05 1022.21 1022.35 1022.49 1022.59 1022.62 1022.53 1022.51 1022.55 1022.48 1022.34
1011.87 1012.13 1013.45 1013.61 1014.16 1014.47 1014.76 1015.23 1015.64 1016.21 1016.78 1017.24 1017.51 1017.99 1018.26 1018.46 1018.89 1019.10 1019.47 1019.69 1019.58 1020.06 1020.38 1020.45 1020.95 1021.03 1021.28 1021.63 1021.69 1021.80 1021.88 1021.99 1022.10 1022.11 1022.45 1022.63 1022.78 1022.80 1022.90 1022.73 1022.81 1022.81 1022.80
1012.68 1013.07 1013.76 1014.36 1014.47 1014.61 1015.42 1015.81 1016.30 1016.52 1017.09 1017.55 1017.93 1018.11 1018.36 1018.63 1019.04 1019.38 1019.68 1019.84 1019.75 1020.21 1020.63 1020.88 1021.13 1021.43 1021.39 1021.69 1021.81 1022.05 1022.15 1022.17 1022.22 1022.35 1022.41 1022.44 1022.79 1022.87 1022.99 1023.04 1023.13 1023.09 1022.92
1012.78 1013.82 1014.32 1013.77 1013.66 1015.81 1015.77 1016.28 1016.65 1017.26 1017.64 1017.92 1018.02 1018.48 1018.76 1018.80 1019.18 1019.52 1019.93 1020.10 1020.28 1020.43 1020.83 1020.98 1021.33 1021.60 1021.81 1021.75 1022.13 1022.39 1022.46 1022.35 1022.45 1022.55 1022.43 1022.37 1022.58 1022.73 1022.94 1023.07 1023.20 1023.17 1023.09
1012.93 1013.86 1014.73 1015.33 1015.35 1014.65 1016.84 1016.55 1016.51 1017.28 1017.74 1018.01 1018.33 1018.56 1018.84 1019.04 1019.46 1019.71 1019.97 1020.42 1020.58 1020.65 1020.99 1021.21 1021.28 1021.87 1022.08 1022.04 1022.42 1022.96 1022.98 1022.77 1022.50 1022.51 1022.52 1022.55 1022.55 1022.67 1022.77 1022.75 1023.10 1023.15 1023.18
1012.83 1013.27 1014.09 1014.80 1015.13 1015.47 1015.27 1016.76 1016.74 1017.00 1017.95 1018.29 1018.96 1018.68 1018.93 1019.24 1019.54 1019.80 1020.19 1020.37 1020.75 1020.88 1021.14 1021.26 1021.38 1021.77 1022.14 1022.23 1022.30 1022.72 1023.36 1023.36 1023.23 1022.80 1022.65 1022.52 1022.79 1022.86 1022.81 1022.89 1022.84 1022.91 1023.00
1012.82 1013.26 1013.70 1014.28 1014.86 1015.55 1016.09 1017.04 1016.29 1017.78 1018.80 1018.62 1018.67 1019.12 1019.12 1019.30 1019.61 1019.57 1020.30 1020.57 1020.96 1021.19 1021.19 1021.33 1021.46 1021.78 1022.06 1022.22 1022.43 1022.65 1022.80 1023.06 1023.48 1023.62 1023.07 1022.72 1022.64 1022.67 1022.70 1022.80 1022.85 1022.78 1022.72
1012.98 1013.37 1013.76 1014.09 1014.64 1015.23 1015.67 1016.25 1015.78 1016.84 1017.46 1018.56 1018.59 1019.05 1019.50 1019.16 1019.30 1019.75 1020.11 1020.34 1020.88 1021.16 1021.17 1021.57 1021.68 1021.95 1021.98 1022.39 1022.34 1022.82 1023.07 1023.18 1023.36 1023.92 1023.96 1023.46 1022.93 1022.76 1022.51 1022.43 1022.33 1022.43 1022.50
1012.95 1013.43 1013.88 1014.24 1014.72 1015.23 1015.69 1016.01 1016.15 1016.38 1017.29 1017.96 1018.67 1018.35 1018.98 1018.86 1019.03 1019.59 1019.85 1020.27 1020.51 1020.66 1021.30 1021.66 1021.72 1021.89 1022.07 1022.19 1022.33 1022.60 1022.89 1023.01 1023.37 1023.62 1024.09 1024.13 1023.73 1023.15 1022.70 1022.28 1022.26 1022.38 1022.31
Wind_Speed
14 15 21 21 21 20 19 17 16 15 15 14 15 16 16 15 13 12 12 12 11 11 11 10 10 9 9 9 10 10 9 8 9 9 8 7 9 11 12 11 8 5 9
19 19 23 21 21 21 19 18 15 14 13 17 16 13 13 11 11 11 12 12 12 11 11 11 10 10 9 9 8 7 6 7 7 6 4 4 5 11 10 9 8 7 9
20 19 19 22 20 20 19 18 16 14 16 16 15 13 12 11 11 11 11 12 12 12 11 11 11 10 9 9 7 6 5 6 6 6 2 2 3 10 9 6 6 8 6
19 18 17 22 21 21 20 18 19 17 15 16 14 14 13 12 12 11 11 12 12 12 12 11 11 10 10 10 9 9 8 8 9 8 5 4 7 13 11 10 10 9 9
18 16 17 22 20 21 21 20 18 17 16 15 15 14 13 13 12 12 12 11 12 12 12 11 11 11 11 11 10 7 7 10 11 8 6 6 4 9 12 12 11 13 14
17 15 19 22 23 21 20 20 19 18 17 16 15 14 14 13 13 12 12 11 12 12 11 11 12 11 12 11 12 12 19 17 12 7 6 6 6 11 13 14 15 16 17
16 15 16 23 22 21 20 19 19 19 17 17 15 14 14 13 13 12 12 11 11 11 11 11 11 13 13 14 14 18 18 15 8 8 6 6 6 15 18 17 16 16 17
18 16 17 21 22 21 20 20 19 19 18 17 16 15 14 13 13 12 11 11 12 11 11 11 12 13 14 15 18 18 16 11 9 8 6 5 13 15 17 16 16 17 17
17 15 15 15 17 20 19 18 18 18 18 17 16 15 14 13 12 12 11 11 12 11 10 11 12 13 16 17 19 18 16 13 8 4 5 3 15 15 15 14 16 16 16
15 16 14 14 13 12 11 16 17 17 15 16 15 15 12 11 12 12 10 10 12 10 10 11 12 14 18 18 17 16 16 15 7 6 4 4 11 15 15 15 14 14 14
16 15 15 14 12 10 9 10 15 16 16 15 13 13 10 5 6 7 7 8 11 9 10 10 10 11 15 15 16 16 14 4 6 5 3 14 16 16 14 15 14 13 12
17 15 14 14 13 13 9 8 7 8 5 5 6 7 5 5 5 5 5 7 10 8 6 7 7 9 10 5 5 11 4 5 5 4 4 14 12 12 12 12 12 11 12
18 12 14 15 13 12 9 6 3 3 4 4 6 5 5 4 4 4 2 3 3 4 2 4 5 4 7 5 5 5 5 5 4 4 7 13 12 11 11 12 10 11 11
18 18 14 15 13 10 7 6 5 5 4 4 4 6 5 3 3 3 3 3 3 2 3 2 3 5 6 7 7 6 6 5 3 3 6 12 12 12 12 11 11 11 11
17 15 16 14 13 10 9 5 5 5 4 5 5 6 5 4 4 4 3 3 3 2 3 3 4 4 5 6 5 7 6 6 6 3 3 10 11 11 11 11 11 11 11
16 17 12 12 12 12 7 7 5 4 5 5 4 5 6 5 5 4 4 4 3 3 3 3 3 4 4 4 5 6 6 6 6 5 3 4 10 10 10 10 10 10 10
3 13 14 12 13 9 8 6 5 5 5 5 4 6 7 6 6 5 4 5 3 3 5 4 4 4 4 3 4 5 5 6 5 5 4 3 4 8 9 9 9 9 9
6 9 3 7 9 13 10 7 6 5 5 5 5 4 6 6 6 5 4 4 4 4 4 3 3 4 4 2 2 2 4 4 5 5 4 3 3 3 5 7 8 8 8
16 12 3 6 6 6 7 6 6 6 5 4 5 4 6 6 6 5 4 3 5 4 3 2 3 2 3 2 2 2 2 4 5 4 5 4 3 3 2 4 5 6 6
12 12 11 2 8 7 4 5 4 4 4 4 3 4 6 5 6 5 3 4 4 4 3 3 3 3 3 2 2 2 1 0 2 3 5 3 3 4 3 2 1 1 2
8 11 10 10 12 6 3 2 5 3 3 2 3 5 4 5 5 5 3 3 3 4 3 3 2 3 2 2 3 2 2 1 2 2 2 3 5 4 3 3 2 2 2
11 10 13 11 9 12 4 2 4 3 2 2 2 3 4 5 5 4 5 2 3 4 4 3 3 2 1 2 3 2 1 3 2 2 2 3 5 3 4 5 4 4 3
10 13 12 10 11 9 11 6 3 5 3 3 1 2 2 5 4 4 3 4 4 3 3 2 3 3 2 1 3 3 1 2 2 2 2 1 2 2 3 3 4 5 4
7 9 12 12 11 8 9 8 14 5 3 1 3 0 2 5 4 5 3 3 3 2 3 2 3 2 2 2 1 2 2 3 2 3 2 2 2 3 2 2 3 4 4
8 8 9 12 9 10 11 10 9 9 5 2 2 5 2 3 4 4 4 5 4 2 2 2 2 2 2 2 2 1 1 2 3 2 2 4 3 2 2 3 3 3 3
8 9 9 11 10 7 8 9 11 13 11 8 6 5 4 2 4 4 5 4 4 4 3 2 2 3 3 2 2 2 3 3 2 2 1 2 2 4 3 3 2 2 2
Wind_Direction
158 159 157 156 152 149 147 147 141 138 134 131 127 119 119 106 105 103 97 91 86 86 85 81 81 84 78 75 74 71 68 65 61 57 50 35 51 89 83 81 76 69 67
144 152 155 155 153 150 149 148 144 141 140 132 122 107 100 108 106 104 103 99 95 89 87 86 84 80 78 71 65 64 55 47 48 47 41 20 16 90 86 78 72 65 60
145 150 153 155 154 150 148 145 146 145 133 116 110 125 121 116 110 107 105 102 99 94 90 88 85 84 81 76 70 66 53 49 38 12 54 157 86 75 78 82 88 62 58
143 148 152 156 154 151 147 146 136 125 114 118 130 127 126 122 117 114 110 106 103 102 97 93 90 86 87 83 79 75 75 69 53 57 60 102 73 64 62 72 73 60 48
145 148 154 158 153 141 140 134 128 130 133 130 131 127 126 123 121 117 111 110 109 105 102 100 97 93 87 82 69 58 67 86 78 56 48 66 62 74 77 75 70 69 67
143 148 153 148 141 137 133 136 139 138 135 133 130 129 127 125 119 116 113 111 107 105 103 102 98 96 89 75 62 79 95 91 79 58 46 53 65 83 90 80 76 71 70
142 149 146 142 139 135 140 141 142 138 137 134 133 131 127 124 120 116 114 111 105 100 99 100 100 98 90 74 78 88 86 80 78 61 39 42 75 85 78 74 74 68 62
143 148 144 140 139 137 144 144 142 139 138 137 134 130 127 126 121 117 114 112 107 104 101 100 100 99 86 77 89 89 80 69 71 64 47 35 65 73 77 74 72 63 59
141 144 141 139 141 137 144 144 142 139 139 138 135 130 126 124 120 116 115 111 108 107 106 103 103 93 80 93 93 89 81 71 63 52 57 50 70 74 71 75 71 66 59
141 144 138 134 133 133 140 141 137 134 135 133 128 119 110 107 112 111 106 114 110 109 108 105 97 80 75 99 89 83 75 60 48 41 32 51 66 74 70 72 66 60 54
148 148 137 135 133 126 126 128 126 128 126 128 126 119 109 107 107 104 113 116 110 112 105 95 83 67 63 95 91 81 74 52 53 34 38 79 80 77 76 67 61 51 41
154 144 139 134 137 133 128 119 117 120 117 123 123 121 123 127 126 118 124 107 106 98 89 75 54 57 68 71 81 79 76 64 51 38 38 67 72 70 61 55 51 56 48
149 141 146 140 141 131 133 127 119 116 117 124 140 137 141 125 107 109 103 67 66 67 24 56 55 65 95 102 88 91 89 75 59 43 45 65 64 64 64 64 63 60 60
155 148 148 142 139 133 136 143 144 139 139 147 163 149 134 128 124 134 132 125 109 71 98 83 85 100 97 99 111 98 90 88 78 56 47 66 74 77 77 74 73 70 63
146 150 149 145 142 144 144 144 146 154 152 161 150 160 147 144 145 145 118 101 105 115 118 109 103 101 100 103 106 117 105 100 92 76 52 70 78 77 76 73 69 68 66
140 143 151 146 145 148 145 146 152 146 144 136 149 162 149 142 144 141 123 109 103 111 93 116 117 110 97 106 106 114 124 113 110 104 86 65 77 76 76 73 67 60 56
8 141 146 150 145 140 143 144 142 150 140 129 135 144 143 141 142 139 129 118 115 102 114 103 80 83 86 77 104 115 124 136 128 124 116 95 70 62 69 67 65 61 54
33 5 112 137 149 145 150 146 144 143 138 134 127 129 134 136 139 135 129 129 125 107 103 91 98 84 84 97 127 129 125 136 148 148 139 132 122 85 70 81 66 56 50
147 139 42 85 68 96 122 127 122 128 121 129 125 128 136 129 134 132 133 140 121 105 95 111 62 104 100 60 136 127 142 147 162 153 166 169 178 143 140 104 88 61 46
140 130 134 71 71 46 59 84 58 90 100 115 124 136 137 126 132 123 125 134 117 110 95 77 94 45 103 100 53 75 355 262 178 168 178 163 194 180 172 160 110 337 60
123 134 160 140 132 98 4 137 88 98 82 84 133 140 140 127 131 133 134 122 114 115 128 123 102 88 43 60 73 12 342 328 254 215 186 188 196 193 195 195 207 207 255
144 148 142 157 160 136 176 12 66 89 104 114 146 145 153 139 143 139 135 122 120 112 112 101 96 96 61 47 116 82 7 337 343 256 207 194 220 209 212 211 211 214 215
156 150 151 150 150 156 134 155 85 23 14 71 44 107 143 143 148 132 148 138 141 121 141 124 111 123 143 46 81 133 69 243 334 334 298 206 196 220 247 256 242 229 212
156 154 154 150 147 158 158 185 152 140 166 180 136 29 125 144 148 127 148 133 128 123 126 148 145 132 125 149 63 61 98 137 168 330 333 341 306 232 217 243 262 246 226
156 159 160 151 148 150 165 205 155 145 128 76 112 137 149 127 143 150 147 134 154 155 136 149 137 143 128 146 141 145 67 69 89 128 280 321 350 305 268 244 233 227 236
164 165 166 164 156 150 156 157 148 143 151 159 188 177 178 172 154 172 162 162 160 145 153 179 170 163 172 156 160 166 173 159 197 146 167 290 245 290 278 291 274 250 249